Home > Weather > Rankin Inlet > Past weeks

Flag for Canada Past Weather in Rankin Inlet, Nunavut, Canada — Yesterday and Last 2 Weeks

Now
54 °F

Passing clouds.


Feels Like: 49 °F
Forecast: 40 / 57 °F
Wind: 18 mph from North

Location: Rankin Inlet

Current Time: Jun 25, 2016 at 2:35:22 PM

Latest Report: Jun 25, 2016 at 2:00 PM


Visibility: 15 mi

Pressure: 30.01 "Hg

Humidity: 54%

Dew Point: 37 °F

Location of Rankin InletLocation

Past Weather in Rankin Inlet — Graph

°F

Rankin Inlet Temperature Yesterday

Maximum temperature yesterday: 59 °F (at 3:00 PM)
Minimum temperature yesterday: 39 °F (at 4:00 AM)
Average temperature yesterday: 50 °F

High & Low Weather Summary for the Past Weeks

 TemperatureHumidityPressure
High59 °F (Jun 24, 3:00 PM)100% (Jun 15, 3:00 AM)30.17 "Hg (Jun 15, 3:00 AM)
Low34 °F (Jun 13, 10:00 PM)45% (Jun 24, 3:00 PM)29.01 "Hg (Jun 17, 10:00 PM)
Average43 °F77%29.80 "Hg
* Reported Jun 10 1:00 PM — Jun 25 1:00 PM, Rankin Inlet, Weather by CustomWeather, © 2016

Note: Actual official high and low records may vary slightly from our data, if they occured in-between our weather recording intervals... More about our weather records

Advertising

Rankin Inlet Weather History for the Previous 24 Hours

Scroll right to see more
 ConditionsComfort  
Time TempWeatherWind HumidityBarometerVisibility
1:00 PM
Sat, Jun 25
54 °FPassing clouds.12 mph54%30.01 "Hg15 mi
12:00 PM52 °FPassing clouds.14 mph58%30.01 "Hg15 mi
11:00 AM52 °FPassing clouds.12 mph54%30.01 "Hg15 mi
10:00 AM50 °FPassing clouds.14 mph58%30.00 "Hg15 mi
9:00 AM48 °FPassing clouds.13 mph62%29.99 "Hg15 mi
8:00 AM48 °FPassing clouds.12 mph62%29.99 "Hg15 mi
7:00 AM46 °FPassing clouds.9 mph66%29.98 "Hg15 mi
6:00 AM43 °FSunny.9 mph81%29.98 "Hg15 mi
5:00 AM41 °FSunny.10 mph81%29.98 "Hg15 mi
4:00 AM39 °FClear.9 mph87%29.97 "Hg15 mi
3:00 AM41 °FPassing clouds.13 mph81%29.96 "Hg15 mi
2:00 AM41 °FPassing clouds.13 mph81%29.95 "Hg15 mi
1:00 AM45 °FPassing clouds.14 mph71%29.94 "Hg15 mi
12:00 AM45 °FPassing clouds.14 mph71%29.94 "Hg15 mi
11:00 PM
Fri, Jun 24
48 °FPassing clouds.12 mph62%29.93 "Hg15 mi
10:00 PM50 °FPassing clouds.13 mph58%29.92 "Hg15 mi
9:00 PM54 °FPassing clouds.14 mph51%29.91 "Hg15 mi
8:00 PM55 °FPassing clouds.17 mph47%29.90 "Hg15 mi
7:00 PM57 °FPassing clouds.18 mph48%29.90 "Hg15 mi
6:00 PM59 °FPassing clouds.20 mph45%29.89 "Hg15 mi
5:00 PM59 °FPassing clouds.18 mph48%29.89 "Hg15 mi
4:00 PM59 °FPassing clouds.16 mph45%29.90 "Hg15 mi
3:00 PM59 °FPassing clouds.18 mph45%29.89 "Hg15 mi
2:00 PM57 °FPassing clouds.18 mph48%29.90 "Hg15 mi
Weather by CustomWeather, © 2016

See weather overviewHow to use our weather pages